Volver al catálogo

STARLINK-6053

ActivoComunicacionesVLEO
NORAD 56466·PAYLOAD·🇺🇸 United States

Lanzado May 10, 2023 desde Vandenberg Space Force Base

Loading…

Próximos Pases (próximas 24 horas)

TLE

ActualizadoSource: CelesTrak SupGP

Época: Sep 15, 2026, 02:39 UTC

1 56466C 23064U   26258.11090278  .00007770  00000+0  65127-3 0  2585
2 56466  70.0032  26.7233 0003112 269.4710  60.4043 14.98320682    11

Sigue STARLINK-6053 en tiempo real con AllMySat

Download on the App Store